Regional Weather Roundup
Issued by NWS Little Rock, AR

Home | Current Version | Previous Version | Graphics & Text | Print | Product List | Glossary On
Versions: 1 2 3 4 5 6 7 8 9 10 11 12 13 14 15 16 17 18 19 20 21 22 23 24 25 26 27 28 29 30 31 32 33 34 35 36 37 38 39 40 41 42 43 44
000
ASUS44 KLZK 060705
RWRLZK

WEATHER ROUNDUP FOR ARKANSAS
NATIONAL WEATHER SERVICE LITTLE ROCK AR
100 AM CST FRI MAR 06 2015

NOTE: "FAIR" INDICATES FEW OR NO CLOUDS BELOW 12,000 FEET WITH NO
SIGNIFICANT WEATHER AND/OR OBSTRUCTIONS TO VISIBILITY.

ARZ001-003-010-029-060800-
NORTHWEST ARKANSAS

CITY           SKY/WX    TMP DP  RH WIND       PRES   REMARKS
FAYETTEVILLE   CLEAR     19  18  95 S6        30.52S WCI  11
FORT SMITH     CLEAR     26  21  81 CALM      30.57S
HARRISON       CLEAR     19  12  74 S3        30.50F
BENTONVILLE    CLEAR     23  16  74 S3        30.50F
ROGERS         CLEAR     24  15  68 SE6       30.50F WCI  17
SILOAM SPGS    CLEAR     25  12  58 S5        30.51F WCI  19
HIGHFILL       CLEAR     24  13  62 S3        30.49F
$$

ARZ004-005-016-060800-
NORTH CENTRAL ARKANSAS

CITY           SKY/WX    TMP DP  RH WIND       PRES   REMARKS
BATESVILLE     CLEAR     16  10  79 CALM      30.59S
FLIPPIN        CLEAR     18  10  73 CALM      30.53F
MTN HOME       CLEAR     18  11  74 CALM      30.52F
$$

ARZ040-041-060800-
WEST CENTRAL ARKANSAS

CITY           SKY/WX    TMP DP  RH WIND       PRES   REMARKS
MENA           CLEAR     23  21  93 CALM      30.54F
MOUNT IDA      CLEAR     21  18  88 NW3       30.53F
$$

ARZ009-017-025-026-028-060800-
NORTHEAST ARKANSAS

CITY           SKY/WX    TMP DP  RH WIND       PRES   REMARKS
CORNING        FAIR      18  10  73 NE5       30.61S WCI  11
JONESBORO      PTCLDY     9   6  88 E3        30.60S
NEWPORT        PTCLDY    15  13  92 CALM      30.62R
WALNUT RIDGE   PTCLDY    14  10  85 CALM      30.60S
BLYTHEVILLE    PTCLDY     4   0  83 NE6       30.61S WCI  -7
$$

ARZ022-023-033-042-044-060800-
CENTRAL ARKANSAS

CITY           SKY/WX    TMP DP  RH WIND       PRES   REMARKS
LITTLE ROCK    CLEAR     20  14  77 CALM      30.60F
N LITTLE ROCK    N/A     24  14  67 NE5       30.60F WCI  18
JACKSONVILLE   CLEAR     17  15  90 CALM      30.58F
SEARCY         CLEAR     21  15  78 NE3       30.62R
HOT SPRINGS    CLEAR     22  20  92 CALM      30.57F
RUSSELLVILLE   FAIR      23  19  85 CALM      30.57F
CLINTON        FAIR      16  16 100 CALM      30.60S
$$

ARZ036-060800-
EAST ARKANSAS

CITY           SKY/WX    TMP DP  RH WIND       PRES   REMARKS
WEST MEMPHIS   PTCLDY    14  12  92 NW3       30.59S
$$

ARZ050-053-066-070-073-060800-
SOUTHWEST ARKANSAS

CITY           SKY/WX    TMP DP  RH WIND       PRES   REMARKS
ARKADELPHIA    FAIR      25  25 100 CALM      30.59F
CAMDEN         CLEAR     21  19  93 CALM      30.59F
TEXARKANA      CLEAR     26  21  81 CALM      30.57F
EL DORADO      CLEAR     22  20  92 CALM      30.57F
DE QUEEN       CLEAR     25  23  92 CALM      30.56F
$$

ARZ056-057-069-060800-
SOUTHEAST ARKANSAS

CITY           SKY/WX    TMP DP  RH WIND       PRES   REMARKS
PINE BLUFF     CLEAR     20  16  84 N3        30.59F
STUTTGART      CLEAR     21  16  79 NE3       30.60S
MONTICELLO     CLEAR     23  19  85 CALM      30.57F

$$





USA.gov is the U.S. government's official web portal to all federal, state and local government web resources and services.